This is the latest recevied weather packets stored in our database for station/object K3HW. If no packets are shown the sender has not sent any weather packets the latest 10 day(s).
| Time | Temp. | Humidity | Pressure | Rain* | Wind** | Luminosity | Snow |
|---|---|---|---|---|---|---|---|
| 1777591709 | 11.11° C | 87% | 1012.8 hPa | 0 mm | - | 7 W/m² | - |
| 1777591404 | 11.11° C | 87% | 1012.7 hPa | 0 mm | - | 9 W/m² | - |
| 1777591101 | 11.67° C | 87% | 1012.7 hPa | 0 mm | - | 10 W/m² | - |
| 1777590796 | 11.11° C | 87% | 1012.7 hPa | 0 mm | - | 14 W/m² | - |
| 1777590492 | 11.67° C | 87% | 1012.6 hPa | 0 mm | - | 16 W/m² | - |
| 1777590189 | 11.67° C | 86% | 1012.6 hPa | 0 mm | - | 19 W/m² | - |
| 1777589886 | 11.67° C | 86% | 1012.6 hPa | 0 mm | - | 16 W/m² | - |
| 1777589581 | 11.11° C | 85% | 1012.4 hPa | 0 mm | - | 17 W/m² | - |
| 1777589279 | 11.11° C | 84% | 1012.4 hPa | 3.05 mm | - | 17 W/m² | - |
| 1777588977 | 11.67° C | 84% | 1012.4 hPa | 7.87 mm | - | 18 W/m² | - |
| 1777588672 | 11.67° C | 82% | 1012.4 hPa | 7.87 mm | - | 13 W/m² | - |
| 1777588368 | 12.22° C | 80% | 1012.4 hPa | 3.05 mm | - | 8 W/m² | - |
| 1777588064 | 14.44° C | 74% | 1012 hPa | 0 mm | - | 5 W/m² | - |
| 1777587760 | 16.11° C | 57% | 1011.6 hPa | 0 mm | - | 3 W/m² | - |
| 1777587459 | 16.11° C | 56% | 1011.5 hPa | 0 mm | - | 13 W/m² | - |
| 1777587156 | 16.11° C | 56% | 1011.6 hPa | 0 mm | - | 21 W/m² | - |
| 1777586851 | 16.11° C | 57% | 1011.2 hPa | 0 mm | - | 42 W/m² | - |
| 1777586547 | 16.11° C | 55% | 1011.3 hPa | 0 mm | - | 29 W/m² | - |
| 1777586243 | 16.67° C | 56% | 1011.4 hPa | 0 mm | - | 26 W/m² | - |
| 1777585941 | 16.67° C | 55% | 1011.4 hPa | 0 mm | - | 28 W/m² | - |
| 1777585636 | 17.22° C | 54% | 1011.4 hPa | 0 mm | - | 37 W/m² | - |
| 1777585331 | 17.78° C | 54% | 1011.3 hPa | 0 mm | - | 212 W/m² | - |
| 1777585026 | 17.78° C | 52% | 1011.3 hPa | 0 mm | - | 240 W/m² | - |
| 1777584723 | 16.67° C | 58% | 1011.5 hPa | 0 mm | - | 311 W/m² | - |
| 1777584421 | 16.67° C | 56% | 1011.2 hPa | 0 mm | - | 87 W/m² | - |
* Rain latest hour (hover to see other rain measurements)
** Current wind speed in m/s (hover to see current wind gust speed)